{"data":{"norad_id":62840,"intl_designator":"2025-019M","name":"STARLINK-11551 [DTC]","alt_names":[],"object_type":"PAYLOAD","status":"ACTIVE","operator":null,"country":"US","launch_date":"2025-01-27","launch_site_code":"AFETR","launch_vehicle":null,"mission":null,"orbit_class":"UNKNOWN","rcs_meters":null,"size_class":null,"mass_kg":null,"dimensions":null,"purposes":["comms"],"wikipedia_slug":null,"has_3d_model":false,"image_url":null,"decayed_at":null,"tle_current":{"epoch":"2026-09-21T12:56:54.141792Z","epoch_age_seconds":78370,"freshness":"FRESH","line1":"1 62840U 25019M   26264.53951553  .00123891  00000+0  95383-3 0  9997","line2":"2 62840  42.9993 205.3895 0000455  23.5166 336.5722 15.70861366 94685","mean_motion":15.70861366,"eccentricity":4.55e-5,"inclination_deg":42.9993,"raan_deg":205.3895,"arg_perigee_deg":23.5166,"mean_anomaly_deg":336.5722,"bstar":0.00095383,"rev_number":9468,"period_min":91.669451624925,"perigee_km":356.12757125379,"apogee_km":356.74041721427,"semimajor_km":6734.570994234,"source":"CELESTRAK","updated_at":"2026-09-22T09:00:49.673244Z"}}}